Regional Weather Roundup
Issued by NWS Northern Indiana

Home | Current Version | Previous Version | Graphics & Text | Print | Product List | Glossary On
Versions: 1 2 3 4 5 6 7 8 9 10 11 12 13 14 15 16 17 18 19 20 21 22 23 24 25 26 27 28 29 30 31 32 33 34 35 36 37 38 39 40 41 42 43 44 45 46 47 48 49 50
000
ASUS43 KIWX 201400
RWRIWX

KIWX WEATHER ROUNDUP
NATIONAL WEATHER SERVICE NORTHERN INDIANA
1000 AM EDT WED AUG 20 2014

NOTE: "FAIR" INDICATES FEW OR NO CLOUDS BELOW 12,000 FEET WITH NO
SIGNIFICANT WEATHER AND/OR OBSTRUCTIONS TO VISIBILITY.

* THESE STATIONS ARE NOT UNDER NWS QUALITY CONTROL. THEY ALSO MAY NOT
  REPORT WEATHER SUCH AS PRECIPITATION OR FOG.

INZ001>027-201500-
NORTHERN INDIANA

CITY           SKY/WX    TMP DP  RH WIND       PRES   REMARKS
VALPARAISO     SUNNY     74  66  76 W6        29.90R
KNOX*          SUNNY     72  66  82 W5        29.88R
SOUTH BEND     NOT AVBL
ELKHART*       SUNNY     73  66  78 W3        29.88R
GOSHEN         SUNNY     74  67  78 SW5       29.88R
MONTICELLO*    SUNNY     72  68  89 W3        29.89R
WARSAW*        SUNNY     72  66  83 CALM      29.89R
ANGOLA*        SUNNY     73  66  78 CALM      29.87S
FORT WAYNE     SUNNY     74  68  81 W5        29.90R
PERU/GRISSOM   SUNNY     73  73 100 W6        29.90R

$$
INZ028>050-201500-
CENTRAL INDIANA

CITY           SKY/WX    TMP DP  RH WIND       PRES   REMARKS
LAFAYETTE      SUNNY     72  69  90 CALM      29.90S
KOKOMO*        SUNNY     73  66  78 W6        29.91R
MUNCIE*        SUNNY     74  67  78 W5        29.92R
INDIANAPOLIS   PTSUNNY   71  70  96 SW7       29.93R FOG

$$
MIZ043>046-050>051-056>058-064>065-071>073-077>080-201500-
SOUTHWEST LOWER MICHIGAN

CITY           SKY/WX    TMP DP  RH WIND       PRES   REMARKS
BATTLE CREEK   SUNNY     73  65  75 NW7       29.87S
BENTON HARBOR  SUNNY     73  64  73 W5        29.86R
COLDWATER*     PTSUNNY   71  68  90 W3        29.88S FOG
HILLSDALE*     MOSUNNY   71  70  98 NW3       29.88S FOG
HOLLAND        SUNNY     74  66  76 W3        29.85S
GRAND RAPIDS   MOSUNNY   73  69  87 W8        29.85S
KALAMAZOO      SUNNY     74  65  73 W3        29.86S
STURGIS*       SUNNY     72  70  94 CALM      29.87R
THREE RIVERS*  FAIR      74  68  80 CALM      29.87S

$$
OHZ001>008-015>018-024>025-201500-
NORTHWEST OHIO

CITY           SKY/WX    TMP DP  RH WIND       PRES   REMARKS
DEFIANCE       SUNNY     74  67  78 VRB3      29.87S
FINDLAY        MOSUNNY   74  68  81 W7        29.88R
TOLEDO EXPRESS CLOUDY    72  67  84 W5        29.86R
TOLEDO METCALF PTSUNNY   73  67  81 W8        29.87S
LIMA           MOSUNNY   73  68  84 SW8       29.90R

$$
&&



USA.gov is the U.S. government's official web portal to all federal, state and local government web resources and services.